地図

経路データ

SID SEASON NUMBER BASIN SUBBASIN NAME ISO_TIME NATURE LAT LON WMO_WIND WMO_PRES WMO_AGENCY TRACK_TYPE DIST2LAND LANDFALL IFLAG USA_AGENCY USA_ATCF_ID USA_LAT USA_LON USA_RECORD USA_STATUS USA_WIND USA_PRES USA_SSHS USA_R34_NE USA_R34_SE USA_R34_SW USA_R34_NW USA_R50_NE USA_R50_SE USA_R50_SW USA_R50_NW USA_R64_NE USA_R64_SE USA_R64_SW USA_R64_NW USA_POCI USA_ROCI USA_RMW USA_EYE TOKYO_LAT TOKYO_LON TOKYO_GRADE TOKYO_WIND TOKYO_PRES TOKYO_R50_DIR TOKYO_R50_LONG TOKYO_R50_SHORT TOKYO_R30_DIR TOKYO_R30_LONG TOKYO_R30_SHORT TOKYO_LAND CMA_LAT CMA_LON CMA_CAT CMA_WIND CMA_PRES HKO_LAT HKO_LON HKO_CAT HKO_WIND HKO_PRES NEWDELHI_LAT NEWDELHI_LON NEWDELHI_GRADE NEWDELHI_WIND NEWDELHI_PRES NEWDELHI_CI NEWDELHI_DP NEWDELHI_POCI REUNION_LAT REUNION_LON REUNION_TYPE REUNION_WIND REUNION_PRES REUNION_TNUM REUNION_CI REUNION_RMW REUNION_R34_NE REUNION_R34_SE REUNION_R34_SW REUNION_R34_NW REUNION_R50_NE REUNION_R50_SE REUNION_R50_SW REUNION_R50_NW REUNION_R64_NE REUNION_R64_SE REUNION_R64_SW REUNION_R64_NW BOM_LAT BOM_LON BOM_TYPE BOM_WIND BOM_PRES BOM_TNUM BOM_CI BOM_RMW BOM_R34_NE BOM_R34_SE BOM_R34_SW BOM_R34_NW BOM_R50_NE BOM_R50_SE BOM_R50_SW BOM_R50_NW BOM_R64_NE BOM_R64_SE BOM_R64_SW BOM_R64_NW BOM_ROCI BOM_POCI BOM_EYE BOM_POS_METHOD BOM_PRES_METHOD NADI_LAT NADI_LON NADI_CAT NADI_WIND NADI_PRES WELLINGTON_LAT WELLINGTON_LON WELLINGTON_WIND WELLINGTON_PRES DS824_LAT DS824_LON DS824_STAGE DS824_WIND DS824_PRES TD9636_LAT TD9636_LON TD9636_STAGE TD9636_WIND TD9636_PRES TD9635_LAT TD9635_LON TD9635_WIND TD9635_PRES TD9635_ROCI NEUMANN_LAT NEUMANN_LON NEUMANN_CLASS NEUMANN_WIND NEUMANN_PRES MLC_LAT MLC_LON MLC_CLASS MLC_WIND MLC_PRES USA_GUST BOM_GUST BOM_GUST_PER REUNION_GUST REUNION_GUST_PER USA_SEAHGT USA_SEARAD_NE USA_SEARAD_SE USA_SEARAD_SW USA_SEARAD_NW STORM_SPEED STORM_DIR
1969264N16313 1969 85 NA NA INGA 1969-09-20 12:00:00 TS 16.0000 -47.0000 25 hurdat_atl main 1355 1340 O_____________ hurdat_atl AL201969 16.0000 -47.0000 TD 25 -1 12 285
1969264N16313 1969 85 NA NA INGA 1969-09-20 15:00:00 TS 16.1604 -47.6098 main 1346 1328 P_____________ AL201969 16.1604 -47.6098 TD 25 -1 12 285
1969264N16313 1969 85 NA NA INGA 1969-09-20 18:00:00 TS 16.3000 -48.2000 25 hurdat_atl main 1330 1319 O_____________ hurdat_atl AL201969 16.3000 -48.2000 TD 25 -1 11 283
1969264N16313 1969 85 NA NA INGA 1969-09-20 21:00:00 TS 16.4073 -48.7576 main 1315 1301 P_____________ AL201969 16.4073 -48.7576 TD 27 -1 11 281
1969264N16313 1969 85 NA NA INGA 1969-09-21 00:00:00 TS 16.5000 -49.3000 30 hurdat_atl main 1301 1288 O_____________ hurdat_atl AL201969 16.5000 -49.3000 TD 30 -1 11 281
1969264N16313 1969 85 NA NA INGA 1969-09-21 03:00:00 TS 16.6075 -49.8650 main 1286 1278 P_____________ AL201969 16.6075 -49.8650 TD 32 -1 11 281
1969264N16313 1969 85 NA NA INGA 1969-09-21 06:00:00 TS 16.7000 -50.4000 35 hurdat_atl main 1278 1264 O_____________ hurdat_atl AL201969 16.7000 -50.4000 TS 35 0 10 279
1969264N16313 1969 85 NA NA INGA 1969-09-21 09:00:00 TS 16.7574 -50.8876 main 1272 1250 P_____________ AL201969 16.7574 -50.8876 TS 35 0 9 277
1969264N16313 1969 85 NA NA INGA 1969-09-21 12:00:00 TS 16.8000 -51.3000 35 1004 hurdat_atl main 1250 1223 O_____________ hurdat_atl AL201969 16.8000 -51.3000 TS 35 1004 0 7 277
1969264N16313 1969 85 NA NA INGA 1969-09-21 15:00:00 TS 16.8499 -51.6300 main 1223 1203 P_____________ AL201969 16.8499 -51.6300 TS 37 0 6 280
1969264N16313 1969 85 NA NA INGA 1969-09-21 18:00:00 TS 16.9000 -51.9000 40 hurdat_atl main 1203 1185 O_____________ hurdat_atl AL201969 16.9000 -51.9000 TS 40 0 5 281
1969264N16313 1969 85 NA NA INGA 1969-09-21 21:00:00 TS 16.9499 -52.1575 main 1176 1165 P_____________ AL201969 16.9499 -52.1575 TS 40 0 5 282
1969264N16313 1969 85 NA NA INGA 1969-09-22 00:00:00 TS 17.0000 -52.4000 40 hurdat_atl main 1165 1148 O_____________ hurdat_atl AL201969 17.0000 -52.4000 TS 40 0 5 282
1969264N16313 1969 85 NA NA INGA 1969-09-22 03:00:00 TS 17.0499 -52.6425 main 1148 1130 P_____________ AL201969 17.0499 -52.6425 TS 40 0 5 282
1969264N16313 1969 85 NA NA INGA 1969-09-22 06:00:00 TS 17.1000 -52.9000 40 hurdat_atl main 1130 1105 O_____________ hurdat_atl AL201969 17.1000 -52.9000 TS 40 0 5 281
1969264N16313 1969 85 NA NA INGA 1969-09-22 09:00:00 TS 17.1500 -53.1925 main 1105 1088 P_____________ AL201969 17.1500 -53.1925 TS 37 0 6 280
1969264N16313 1969 85 NA NA INGA 1969-09-22 12:00:00 TS 17.2000 -53.5000 35 1007 hurdat_atl main 1088 1064 O_____________ hurdat_atl AL201969 17.2000 -53.5000 TS 35 1007 0 6 280
1969264N16313 1969 85 NA NA INGA 1969-09-22 15:00:00 TS 17.2500 -53.8000 main 1064 1048 P_____________ AL201969 17.2500 -53.8000 TS 35 1007 0 6 280
1969264N16313 1969 85 NA NA INGA 1969-09-22 18:00:00 TS 17.3000 -54.1000 35 1007 hurdat_atl main 1048 1026 O_____________ hurdat_atl AL201969 17.3000 -54.1000 TS 35 1007 0 6 279
1969264N16313 1969 85 NA NA INGA 1969-09-22 21:00:00 TS 17.3424 -54.3926 main 1026 1012 P_____________ AL201969 17.3424 -54.3926 TS 35 1006 0 6 280
1969264N16313 1969 85 NA NA INGA 1969-09-23 00:00:00 TS 17.4000 -54.7000 35 1006 hurdat_atl main 1012 997 O_____________ hurdat_atl AL201969 17.4000 -54.7000 TS 35 1006 0 6 284
1969264N16313 1969 85 NA NA INGA 1969-09-23 03:00:00 TS 17.4925 -55.0425 main 999 980 P_____________ AL201969 17.4925 -55.0425 TS 35 1006 0 7 287
1969264N16313 1969 85 NA NA INGA 1969-09-23 06:00:00 TS 17.6000 -55.4000 35 hurdat_atl main 980 967 I_____________ hurdat_atl AL201969 17.6000 -55.4000 TS 35 1006 0 7 287
1969264N16313 1969 85 NA NA INGA 1969-09-23 09:00:00 TS 17.6999 -55.7425 main 969 954 P_____________ AL201969 17.6999 -55.7425 TS 35 1006 0 7 287
1969264N16313 1969 85 NA NA INGA 1969-09-23 12:00:00 TS 17.8000 -56.1000 35 1006 hurdat_atl main 954 940 O_____________ hurdat_atl AL201969 17.8000 -56.1000 TS 35 1006 0 7 286
1969264N16313 1969 85 NA NA INGA 1969-09-23 15:00:00 TS 17.8999 -56.4850 main 940 919 P_____________ AL201969 17.8999 -56.4850 TS 32 1006 -1 8 285
1969264N16313 1969 85 NA NA INGA 1969-09-23 18:00:00 TS 18.0000 -56.9000 30 1007 hurdat_atl main 919 877 O_____________ hurdat_atl AL201969 18.0000 -56.9000 TD 30 1007 -1 8 284
1969264N16313 1969 85 NA NA INGA 1969-09-23 21:00:00 TS 18.0999 -57.3425 main 877 823 P_____________ AL201969 18.0999 -57.3425 TD 30 1006 -1 9 283
1969264N16313 1969 85 NA NA INGA 1969-09-24 00:00:00 TS 18.2000 -57.8000 30 1006 hurdat_atl main 823 781 O_____________ hurdat_atl AL201969 18.2000 -57.8000 TD 30 1006 -1 9 283
1969264N16313 1969 85 NA NA INGA 1969-09-24 03:00:00 TS 18.2999 -58.2500 main 770 728 P_____________ AL201969 18.2999 -58.2500 TD 30 1006 -1 9 283
1969264N16313 1969 85 NA NA INGA 1969-09-24 06:00:00 TS 18.4000 -58.7000 30 hurdat_atl main 728 685 I_____________ hurdat_atl AL201969 18.4000 -58.7000 TD 30 1006 -1 9 283
1969264N16313 1969 85 NA NA INGA 1969-09-24 09:00:00 TS 18.5000 -59.1650 main 675 633 P_____________ AL201969 18.5000 -59.1650 TD 30 1006 -1 9 283
1969264N16313 1969 85 NA NA INGA 1969-09-24 12:00:00 TS 18.6000 -59.6000 30 1007 hurdat_atl main 633 591 O_____________ hurdat_atl AL201969 18.6000 -59.6000 TD 30 1007 -1 8 285
1969264N16313 1969 85 NA NA INGA 1969-09-24 15:00:00 TS 18.6999 -59.9725 main 591 560 P_____________ AL201969 18.6999 -59.9725 TD 30 -1 7 287
1969264N16313 1969 85 NA NA INGA 1969-09-24 18:00:00 TS 18.8000 -60.3000 30 hurdat_atl main 560 529 O_____________ hurdat_atl AL201969 18.8000 -60.3000 TD 30 -1 6 288
1969264N16313 1969 85 NA NA INGA 1969-09-24 21:00:00 TS 18.8924 -60.6076 main 529 499 P_____________ AL201969 18.8924 -60.6076 TD 27 -1 6 289
1969264N16313 1969 85 NA NA INGA 1969-09-25 00:00:00 TS 19.0000 -60.9000 25 hurdat_atl main 499 469 O_____________ hurdat_atl AL201969 19.0000 -60.9000 TD 25 -1 6 294
1969264N16313 1969 85 NA NA INGA 1969-09-25 03:00:00 TS 19.1425 -61.2150 main 469 443 P_____________ AL201969 19.1425 -61.2150 TD 25 -1 6 298
1969264N16313 1969 85 NA NA INGA 1969-09-25 06:00:00 TS 19.3000 -61.5000 25 hurdat_atl main 443 425 O_____________ hurdat_atl AL201969 19.3000 -61.5000 TD 25 -1 6 302
1969264N16313 1969 85 NA NA INGA 1969-09-25 09:00:00 TS 19.4424 -61.7226 main 425 411 P_____________ AL201969 19.4424 -61.7226 TD 25 -1 5 309
1969264N16313 1969 85 NA NA INGA 1969-09-25 12:00:00 TS 19.6000 -61.9000 25 hurdat_atl main 411 399 O_____________ hurdat_atl AL201969 19.6000 -61.9000 TD 25 -1 5 318
1969264N16313 1969 85 NA NA INGA 1969-09-25 15:00:00 TS 19.7925 -62.0650 main 399 394 P_____________ AL201969 19.7925 -62.0650 TD 25 -1 5 325
1969264N16313 1969 85 NA NA INGA 1969-09-25 18:00:00 TS 20.0000 -62.2000 25 hurdat_atl main 399 395 O_____________ hurdat_atl AL201969 20.0000 -62.2000 TD 25 -1 5 331
1969264N16313 1969 85 NA NA INGA 1969-09-25 21:00:00 TS 20.2000 -62.3076 main 400 397 P_____________ AL201969 20.2000 -62.3076 TD 25 -1 4 335
1969264N16313 1969 85 NA NA INGA 1969-09-26 00:00:00 TS 20.4000 -62.4000 25 hurdat_atl main 403 401 O_____________ hurdat_atl AL201969 20.4000 -62.4000 TD 25 -1 4 335
1969264N16313 1969 85 NA NA INGA 1969-09-26 03:00:00 TS 20.5925 -62.5075 main 407 406 P_____________ AL201969 20.5925 -62.5075 TD 25 -1 4 335
1969264N16313 1969 85 NA NA INGA 1969-09-26 06:00:00 TS 20.8000 -62.6000 25 hurdat_atl main 413 413 O_____________ hurdat_atl AL201969 20.8000 -62.6000 TD 25 -1 5 343
1969264N16313 1969 85 NA NA INGA 1969-09-26 09:00:00 TS 21.0425 -62.6575 main 420 420 P_____________ AL201969 21.0425 -62.6575 TD 25 -1 5 349
1969264N16313 1969 85 NA NA INGA 1969-09-26 12:00:00 TS 21.3000 -62.7000 25 1008 hurdat_atl main 444 444 O_____________ hurdat_atl AL201969 21.3000 -62.7000 TD 25 1008 -1 5 351
1969264N16313 1969 85 NA NA INGA 1969-09-26 15:00:00 TS 21.5575 -62.7500 main 462 462 P_____________ AL201969 21.5575 -62.7500 TD 25 -1 5 349
1969264N16313 1969 85 NA NA INGA 1969-09-26 18:00:00 TS 21.8000 -62.8000 25 hurdat_atl main 479 479 O_____________ hurdat_atl AL201969 21.8000 -62.8000 TD 25 -1 5 348
1969264N16313 1969 85 NA NA INGA 1969-09-26 21:00:00 TS 22.0150 -62.8500 main 491 491 P_____________ AL201969 22.0150 -62.8500 TD 25 -1 4 348
1969264N16313 1969 85 NA NA INGA 1969-09-27 00:00:00 TS 22.2000 -62.9000 25 hurdat_atl main 509 509 O_____________ hurdat_atl AL201969 22.2000 -62.9000 TD 25 -1 4 346
1969264N16313 1969 85 NA NA INGA 1969-09-27 03:00:00 TS 22.3650 -62.9500 main 522 522 P_____________ AL201969 22.3650 -62.9500 TD 25 -1 3 344
1969264N16313 1969 85 NA NA INGA 1969-09-27 06:00:00 TS 22.5000 -63.0000 25 hurdat_atl main 532 532 O_____________ hurdat_atl AL201969 22.5000 -63.0000 TD 25 -1 3 340
1969264N16313 1969 85 NA NA INGA 1969-09-27 09:00:00 TS 22.6150 -63.0500 main 542 537 P_____________ AL201969 22.6150 -63.0500 TD 27 -1 2 335
1969264N16313 1969 85 NA NA INGA 1969-09-27 12:00:00 TS 22.7000 -63.1000 30 hurdat_atl main 546 546 O_____________ hurdat_atl AL201969 22.7000 -63.1000 TD 30 -1 2 326
1969264N16313 1969 85 NA NA INGA 1969-09-27 15:00:00 TS 22.7500 -63.1425 main 546 546 P_____________ AL201969 22.7500 -63.1425 TD 32 -1 1 320
1969264N16313 1969 85 NA NA INGA 1969-09-27 18:00:00 TS 22.8000 -63.2000 35 1003 hurdat_atl main 551 551 O_____________ hurdat_atl AL201969 22.8000 -63.2000 TS 35 1003 0 2 317
1969264N16313 1969 85 NA NA INGA 1969-09-27 21:00:00 TS 22.8925 -63.2850 main 557 557 P_____________ AL201969 22.8925 -63.2850 TS 35 0 3 317
1969264N16313 1969 85 NA NA INGA 1969-09-28 00:00:00 TS 23.0000 -63.4000 35 hurdat_atl main 562 558 O_____________ hurdat_atl AL201969 23.0000 -63.4000 TS 35 0 3 310
1969264N16313 1969 85 NA NA INGA 1969-09-28 03:00:00 TS 23.0925 -63.5425 main 569 565 P_____________ AL201969 23.0925 -63.5425 TS 35 0 3 306
1969264N16313 1969 85 NA NA INGA 1969-09-28 06:00:00 TS 23.2000 -63.7000 35 hurdat_atl main 571 568 O_____________ hurdat_atl AL201969 23.2000 -63.7000 TS 35 0 4 311
1969264N16313 1969 85 NA NA INGA 1969-09-28 09:00:00 TS 23.3425 -63.8575 main 575 575 P_____________ AL201969 23.3425 -63.8575 TS 37 0 4 318
1969264N16313 1969 85 NA NA INGA 1969-09-28 12:00:00 TS 23.5000 -64.0000 40 1000 hurdat_atl main 593 593 O_____________ hurdat_atl AL201969 23.5000 -64.0000 TS 40 1000 0 4 323
1969264N16313 1969 85 NA NA INGA 1969-09-28 15:00:00 TS 23.6500 -64.1075 main 601 601 P_____________ AL201969 23.6500 -64.1075 TS 40 0 4 329
1969264N16313 1969 85 NA NA INGA 1969-09-28 18:00:00 TS 23.8000 -64.2000 40 hurdat_atl main 621 621 O_____________ hurdat_atl AL201969 23.8000 -64.2000 TS 40 0 3 329
1969264N16313 1969 85 NA NA INGA 1969-09-28 21:00:00 TS 23.9425 -64.3000 main 629 629 P_____________ AL201969 23.9425 -64.3000 TS 42 0 4 329
1969264N16313 1969 85 NA NA INGA 1969-09-29 00:00:00 TS 24.1000 -64.4000 45 hurdat_atl main 649 649 O_____________ hurdat_atl AL201969 24.1000 -64.4000 TS 45 0 4 333
1969264N16313 1969 85 NA NA INGA 1969-09-29 03:00:00 TS 24.2925 -64.5000 main 669 669 P_____________ AL201969 24.2925 -64.5000 TS 45 0 4 336
1969264N16313 1969 85 NA NA INGA 1969-09-29 06:00:00 TS 24.5000 -64.6000 45 hurdat_atl main 689 689 O_____________ hurdat_atl AL201969 24.5000 -64.6000 TS 45 0 4 335
1969264N16313 1969 85 NA NA INGA 1969-09-29 09:00:00 TS 24.6925 -64.7075 main 710 710 P_____________ AL201969 24.6925 -64.7075 TS 47 0 4 336
1969264N16313 1969 85 NA NA INGA 1969-09-29 12:00:00 TS 24.9000 -64.8000 50 992 hurdat_atl main 731 731 O_____________ hurdat_atl AL201969 24.9000 -64.8000 TS 50 992 0 5 340
1969264N16313 1969 85 NA NA INGA 1969-09-29 15:00:00 TS 25.1350 -64.8799 main 752 752 P_____________ AL201969 25.1350 -64.8799 TS 50 991 0 5 350
1969264N16313 1969 85 NA NA INGA 1969-09-29 18:00:00 TS 25.4000 -64.9000 50 991 hurdat_atl main 785 785 O_____________ hurdat_atl AL201969 25.4000 -64.9000 TS 50 991 0 6 4
1969264N16313 1969 85 NA NA INGA 1969-09-29 21:00:00 TS 25.6849 -64.8449 main 820 820 P_____________ AL201969 25.6849 -64.8449 TS 50 992 0 6 17
1969264N16313 1969 85 NA NA INGA 1969-09-30 00:00:00 TS 26.0000 -64.7000 50 994 hurdat_atl main 854 854 O_____________ hurdat_atl AL201969 26.0000 -64.7000 TS 50 994 0 8 27
1969264N16313 1969 85 NA NA INGA 1969-09-30 03:00:00 TS 26.3576 -64.4652 main 901 901 P_____________ AL201969 26.3576 -64.4652 TS 50 992 0 8 33
1969264N16313 1969 85 NA NA INGA 1969-09-30 06:00:00 TS 26.7000 -64.2000 50 990 hurdat_atl main 938 938 O_____________ hurdat_atl AL201969 26.7000 -64.2000 TS 50 990 0 7 35
1969264N16313 1969 85 NA NA INGA 1969-09-30 09:00:00 TS 26.9574 -63.9922 main 975 975 P_____________ AL201969 26.9574 -63.9922 TS 50 992 0 6 36
1969264N16313 1969 85 NA NA INGA 1969-09-30 12:00:00 TS 27.2000 -63.8000 50 994 hurdat_atl main 1000 1000 O_____________ hurdat_atl AL201969 27.2000 -63.8000 TS 50 994 0 6 33
1969264N16313 1969 85 NA NA INGA 1969-09-30 15:00:00 TS 27.5000 -63.6000 main 1037 1037 P_____________ AL201969 27.5000 -63.6000 TS 52 991 0 7 31
1969264N16313 1969 85 NA NA INGA 1969-09-30 18:00:00 TS 27.8000 -63.4000 55 989 hurdat_atl main 1074 1074 O_____________ hurdat_atl AL201969 27.8000 -63.4000 TS 55 989 0 7 32
1969264N16313 1969 85 NA NA INGA 1969-09-30 21:00:00 TS 28.0575 -63.1999 main 1111 1111 P_____________ AL201969 28.0575 -63.1999 TS 55 988 0 6 35
1969264N16313 1969 85 NA NA INGA 1969-10-01 00:00:00 TS 28.3000 -63.0000 55 988 hurdat_atl main 1137 1137 O_____________ hurdat_atl AL201969 28.3000 -63.0000 TS 55 988 0 6 36
1969264N16313 1969 85 NA NA INGA 1969-10-01 03:00:00 TS 28.5500 -62.7999 main 1164 1164 P_____________ AL201969 28.5500 -62.7999 TS 55 989 0 6 35
1969264N16313 1969 85 NA NA INGA 1969-10-01 06:00:00 TS 28.8000 -62.6000 55 991 hurdat_atl main 1201 1201 O_____________ hurdat_atl AL201969 28.8000 -62.6000 TS 55 991 0 6 35
1969264N16313 1969 85 NA NA INGA 1969-10-01 09:00:00 TS 29.0575 -62.3999 main 1239 1239 P_____________ AL201969 29.0575 -62.3999 TS 55 991 0 6 35
1969264N16313 1969 85 NA NA INGA 1969-10-01 12:00:00 TS 29.3000 -62.2000 55 991 hurdat_atl main 1265 1265 O_____________ hurdat_atl AL201969 29.3000 -62.2000 TS 55 991 0 6 37
1969264N16313 1969 85 NA NA INGA 1969-10-01 15:00:00 TS 29.5375 -61.9851 main 1292 1292 P_____________ AL201969 29.5375 -61.9851 TS 57 989 0 5 41
1969264N16313 1969 85 NA NA INGA 1969-10-01 18:00:00 TS 29.7000 -61.8000 60 987 hurdat_atl main 1320 1320 O_____________ hurdat_atl AL201969 29.7000 -61.8000 TS 60 987 0 3 50
1969264N16313 1969 85 NA NA INGA 1969-10-01 21:00:00 TS 29.7600 -61.6774 main 1333 1326 P_____________ AL201969 29.7600 -61.6774 TS 60 986 0 2 90
1969264N16313 1969 85 NA NA INGA 1969-10-02 00:00:00 TS 29.7000 -61.6000 60 986 hurdat_atl main 1326 1308 O_____________ hurdat_atl AL201969 29.7000 -61.6000 TS 60 986 0 3 150
1969264N16313 1969 85 NA NA INGA 1969-10-02 03:00:00 TS 29.5300 -61.5274 main 1308 1287 P_____________ AL201969 29.5300 -61.5274 TS 60 986 0 4 168
1969264N16313 1969 85 NA NA INGA 1969-10-02 06:00:00 TS 29.3000 -61.5000 60 hurdat_atl main 1287 1266 I_____________ hurdat_atl AL201969 29.3000 -61.5000 TS 60 987 0 4 0
1969264N16313 1969 85 NA NA INGA 1969-10-02 09:00:00 TS 29.1000 -61.5275 main 1266 1241 P_____________ AL201969 29.1000 -61.5275 TS 60 988 0 4 192
1969264N16313 1969 85 NA NA INGA 1969-10-02 12:00:00 TS 28.9000 -61.6000 60 989 hurdat_atl main 1241 1217 O_____________ hurdat_atl AL201969 28.9000 -61.6000 TS 60 989 0 4 199
1969264N16313 1969 85 NA NA INGA 1969-10-02 15:00:00 TS 28.7000 -61.6850 main 1217 1193 P_____________ AL201969 28.7000 -61.6850 TS 60 988 0 4 204
1969264N16313 1969 85 NA NA INGA 1969-10-02 18:00:00 TS 28.5000 -61.8000 60 987 hurdat_atl main 1193 1168 O_____________ hurdat_atl AL201969 28.5000 -61.8000 TS 60 987 0 5 207
1969264N16313 1969 85 NA NA INGA 1969-10-02 21:00:00 TS 28.2924 -61.9199 main 1168 1141 P_____________ AL201969 28.2924 -61.9199 TS 60 986 0 5 214
1969264N16313 1969 85 NA NA INGA 1969-10-03 00:00:00 TS 28.1000 -62.1000 60 986 hurdat_atl main 1141 1110 O_____________ hurdat_atl AL201969 28.1000 -62.1000 TS 60 986 0 5 228
1969264N16313 1969 85 NA NA INGA 1969-10-03 03:00:00 TS 27.9350 -62.3700 main 1110 1091 P_____________ AL201969 27.9350 -62.3700 TS 60 986 0 6 240
1969264N16313 1969 85 NA NA INGA 1969-10-03 06:00:00 TS 27.8000 -62.7000 60 hurdat_atl main 1091 1072 I_____________ hurdat_atl AL201969 27.8000 -62.7000 TS 60 987 0 6 246
1969264N16313 1969 85 NA NA INGA 1969-10-03 09:00:00 TS 27.6774 -63.0350 main 1072 1052 P_____________ AL201969 27.6774 -63.0350 TS 60 988 0 7 252
1969264N16313 1969 85 NA NA INGA 1969-10-03 12:00:00 TS 27.6000 -63.4000 60 989 hurdat_atl main 1052 1044 O_____________ hurdat_atl AL201969 27.6000 -63.4000 TS 60 989 0 7 262
1969264N16313 1969 85 NA NA INGA 1969-10-03 15:00:00 TS 27.5775 -63.7999 main 1044 1038 P_____________ AL201969 27.5775 -63.7999 TS 60 989 0 7 270
1969264N16313 1969 85 NA NA INGA 1969-10-03 18:00:00 TS 27.6000 -64.2000 60 990 hurdat_atl main 1038 1034 O_____________ hurdat_atl AL201969 27.6000 -64.2000 TS 60 990 0 7 274
1969264N16313 1969 85 NA NA INGA 1969-10-03 21:00:00 TS 27.6274 -64.5651 main 1033 1032 P_____________ AL201969 27.6274 -64.5651 TS 62 988 0 6 279
1969264N16313 1969 85 NA NA INGA 1969-10-04 00:00:00 TS 27.7000 -64.9000 65 986 hurdat_atl main 1040 1031 O_____________ hurdat_atl AL201969 27.7000 -64.9000 HU 65 986 1 6 289
1969264N16313 1969 85 NA NA INGA 1969-10-04 03:00:00 TS 27.8275 -65.2374 main 1037 1033 P_____________ AL201969 27.8275 -65.2374 HU 67 984 1 6 300
1969264N16313 1969 85 NA NA INGA 1969-10-04 06:00:00 TS 28.0000 -65.5000 70 hurdat_atl main 1044 1039 I_____________ hurdat_atl AL201969 28.0000 -65.5000 HU 70 983 1 5 311
1969264N16313 1969 85 NA NA INGA 1969-10-04 09:00:00 TS 28.1698 -65.6897 main 1055 1055 P_____________ AL201969 28.1698 -65.6897 HU 72 981 1 4 336
1969264N16313 1969 85 NA NA INGA 1969-10-04 12:00:00 TS 28.4000 -65.7000 75 980 hurdat_atl main 1075 1075 O_____________ hurdat_atl AL201969 28.4000 -65.7000 HU 75 980 1 6 16
1969264N16313 1969 85 NA NA INGA 1969-10-04 15:00:00 TS 28.7346 -65.5125 main 1114 1114 P_____________ AL201969 28.7346 -65.5125 HU 82 974 1 9 37
1969264N16313 1969 85 NA NA INGA 1969-10-04 18:00:00 TS 29.1000 -65.1000 90 969 hurdat_atl main 1171 1171 O_____________ hurdat_atl AL201969 29.1000 -65.1000 HU 90 969 2 11 53
1969264N16313 1969 85 NA NA INGA 1969-10-04 21:00:00 TS 29.3926 -64.5170 main 1227 1227 P_____________ AL201969 29.3926 -64.5170 HU 90 968 2 13 62
1969264N16313 1969 85 NA NA INGA 1969-10-05 00:00:00 TS 29.7000 -63.8000 90 968 hurdat_atl main 1275 1275 O_____________ hurdat_atl AL201969 29.7000 -63.8000 HU 90 968 2 14 61
1969264N16313 1969 85 NA NA INGA 1969-10-05 03:00:00 TS 30.0922 -63.0724 main 1316 1316 P_____________ AL201969 30.0922 -63.0724 HU 92 967 2 15 58
1969264N16313 1969 85 NA NA INGA 1969-10-05 06:00:00 TS 30.5000 -62.3000 95 hurdat_atl main 1359 1359 I_____________ hurdat_atl AL201969 30.5000 -62.3000 HU 95 966 2 16 61
1969264N16313 1969 85 NA NA INGA 1969-10-05 09:00:00 TS 30.8576 -61.4772 main 1406 1406 P_____________ AL201969 30.8576 -61.4772 HU 95 965 2 15 63
1969264N16313 1969 85 NA NA INGA 1969-10-05 12:00:00 TS 31.2000 -60.7000 95 964 hurdat_atl main 1428 1409 O_____________ hurdat_atl AL201969 31.2000 -60.7000 HU 95 964 2 14 60
1969264N16313 1969 85 NA NA INGA 1969-10-05 15:00:00 TS 31.5492 -60.0692 main 1411 1384 P_____________ AL201969 31.5492 -60.0692 HU 95 964 2 12 56
1969264N16313 1969 85 NA NA INGA 1969-10-05 18:00:00 TS 31.9000 -59.5000 95 964 hurdat_atl main 1387 1369 O_____________ hurdat_atl AL201969 31.9000 -59.5000 HU 95 964 2 12 55
1969264N16313 1969 85 NA NA INGA 1969-10-05 21:00:00 TS 32.2574 -58.8849 main 1366 1353 P_____________ AL201969 32.2574 -58.8849 HU 92 967 2 12 55
1969264N16313 1969 85 NA NA INGA 1969-10-06 00:00:00 TS 32.6000 -58.3000 90 hurdat_atl main 1357 1343 I_____________ hurdat_atl AL201969 32.6000 -58.3000 HU 90 971 2 11 55
1969264N16313 1969 85 NA NA INGA 1969-10-06 03:00:00 TS 32.9148 -57.7696 main 1347 1335 P_____________ AL201969 32.9148 -57.7696 HU 82 974 1 10 54
1969264N16313 1969 85 NA NA INGA 1969-10-06 06:00:00 TS 33.2000 -57.3000 75 978 hurdat_atl main 1339 1329 O_____________ hurdat_atl AL201969 33.2000 -57.3000 HU 75 978 1 9 54
1969264N16313 1969 85 NA NA INGA 1969-10-06 09:00:00 TS 33.4724 -56.8624 main 1329 1324 P_____________ AL201969 33.4724 -56.8624 HU 72 979 1 8 53
1969264N16313 1969 85 NA NA INGA 1969-10-06 12:00:00 TS 33.7000 -56.5000 70 hurdat_atl main 1329 1320 I_____________ hurdat_atl AL201969 33.7000 -56.5000 HU 70 980 1 7 53
1969264N16313 1969 85 NA NA INGA 1969-10-06 15:00:00 TS 33.8723 -56.2272 main 1324 1317 P_____________ AL201969 33.8723 -56.2272 HU 67 981 1 5 54
1969264N16313 1969 85 NA NA INGA 1969-10-06 18:00:00 TS 34.0000 -56.0000 65 983 hurdat_atl main 1319 1312 O_____________ hurdat_atl AL201969 34.0000 -56.0000 HU 65 983 1 5 59
1969264N16313 1969 85 NA NA INGA 1969-10-06 21:00:00 TS 34.1150 -55.7425 main 1317 1310 P_____________ AL201969 34.1150 -55.7425 HU 65 1 5 64
1969264N16313 1969 85 NA NA INGA 1969-10-07 00:00:00 TS 34.2000 -55.5000 65 hurdat_atl main 1313 1309 O_____________ hurdat_atl AL201969 34.2000 -55.5000 HU 65 1 4 69
1969264N16313 1969 85 NA NA INGA 1969-10-07 03:00:00 TS 34.2574 -55.2924 main 1309 1309 P_____________ AL201969 34.2574 -55.2924 HU 67 1 3 73
1969264N16313 1969 85 NA NA INGA 1969-10-07 06:00:00 TS 34.3000 -55.1000 70 hurdat_atl main 1315 1315 O_____________ hurdat_atl AL201969 34.3000 -55.1000 HU 70 1 3 74
1969264N16313 1969 85 NA NA INGA 1969-10-07 09:00:00 TS 34.3499 -54.9075 main 1322 1311 P_____________ AL201969 34.3499 -54.9075 HU 70 1 3 73
1969264N16313 1969 85 NA NA INGA 1969-10-07 12:00:00 TS 34.4000 -54.7000 70 980 hurdat_atl main 1318 1315 O_____________ hurdat_atl AL201969 34.4000 -54.7000 HU 70 980 1 4 74
1969264N16313 1969 85 NA NA INGA 1969-10-07 15:00:00 TS 34.4574 -54.4650 main 1315 1315 P_____________ AL201969 34.4574 -54.4650 HU 70 981 1 4 76
1969264N16313 1969 85 NA NA INGA 1969-10-07 18:00:00 TS 34.5000 -54.2000 70 983 hurdat_atl main 1326 1326 O_____________ hurdat_atl AL201969 34.5000 -54.2000 HU 70 983 1 5 83
1969264N16313 1969 85 NA NA INGA 1969-10-07 21:00:00 TS 34.5151 -53.8925 main 1337 1337 P_____________ AL201969 34.5151 -53.8925 HU 67 986 1 5 90
1969264N16313 1969 85 NA NA INGA 1969-10-08 00:00:00 TS 34.5000 -53.6000 65 989 hurdat_atl main 1346 1346 O_____________ hurdat_atl AL201969 34.5000 -53.6000 HU 65 989 1 4 98
1969264N16313 1969 85 NA NA INGA 1969-10-08 03:00:00 TS 34.4574 -53.3850 main 1346 1346 P_____________ AL201969 34.4574 -53.3850 HU 65 989 1 3 107
1969264N16313 1969 85 NA NA INGA 1969-10-08 06:00:00 TS 34.4000 -53.2000 65 hurdat_atl main 1357 1357 I_____________ hurdat_atl AL201969 34.4000 -53.2000 HU 65 989 1 3 108
1969264N16313 1969 85 NA NA INGA 1969-10-08 09:00:00 TS 34.3575 -53.0001 main 1357 1357 P_____________ AL201969 34.3575 -53.0001 HU 65 989 1 3 107
1969264N16313 1969 85 NA NA INGA 1969-10-08 12:00:00 TS 34.3000 -52.8000 65 989 hurdat_atl main 1369 1369 O_____________ hurdat_atl AL201969 34.3000 -52.8000 HU 65 989 1 4 114
1969264N16313 1969 85 NA NA INGA 1969-10-08 15:00:00 TS 34.2075 -52.6000 main 1380 1380 P_____________ AL201969 34.2075 -52.6000 HU 67 986 1 4 121
1969264N16313 1969 85 NA NA INGA 1969-10-08 18:00:00 TS 34.1000 -52.4000 70 983 hurdat_atl main 1392 1392 O_____________ hurdat_atl AL201969 34.1000 -52.4000 HU 70 983 1 4 118
1969264N16313 1969 85 NA NA INGA 1969-10-08 21:00:00 TS 34.0300 -52.1927 main 1404 1404 P_____________ AL201969 34.0300 -52.1927 HU 70 1 4 121
1969264N16313 1969 85 NA NA INGA 1969-10-09 00:00:00 TS 33.9000 -52.0000 70 hurdat_atl main 1416 1416 O_____________ hurdat_atl AL201969 33.9000 -52.0000 HU 70 1 5 144
1969264N16313 1969 85 NA NA INGA 1969-10-09 03:00:00 TS 33.6300 -51.8349 main 1451 1451 P_____________ AL201969 33.6300 -51.8349 HU 70 1 7 157
1969264N16313 1969 85 NA NA INGA 1969-10-09 06:00:00 TS 33.3000 -51.7000 70 hurdat_atl main 1485 1485 O_____________ hurdat_atl AL201969 33.3000 -51.7000 HU 70 1 7 162
1969264N16313 1969 85 NA NA INGA 1969-10-09 09:00:00 TS 32.9925 -51.5851 main 1519 1519 P_____________ AL201969 32.9925 -51.5851 HU 67 1 6 164
1969264N16313 1969 85 NA NA INGA 1969-10-09 12:00:00 TS 32.7000 -51.5000 65 hurdat_atl main 1553 1553 O_____________ hurdat_atl AL201969 32.7000 -51.5000 HU 65 1 6 168
1969264N16313 1969 85 NA NA INGA 1969-10-09 15:00:00 TS 32.4425 -51.4426 main 1587 1587 P_____________ AL201969 32.4425 -51.4426 HU 65 1 5 170
1969264N16313 1969 85 NA NA INGA 1969-10-09 18:00:00 TS 32.2000 -51.4000 65 986 hurdat_atl main 1610 1610 O_____________ hurdat_atl AL201969 32.2000 -51.4000 HU 65 986 1 5 171
1969264N16313 1969 85 NA NA INGA 1969-10-09 21:00:00 TS 31.9500 -51.3500 main 1632 1643 P_____________ AL201969 31.9500 -51.3500 HU 62 0 5 170
1969264N16313 1969 85 NA NA INGA 1969-10-10 00:00:00 TS 31.7000 -51.3000 60 hurdat_atl main 1666 1666 O_____________ hurdat_atl AL201969 31.7000 -51.3000 TS 60 0 5 170
1969264N16313 1969 85 NA NA INGA 1969-10-10 03:00:00 TS 31.4575 -51.2500 main 1688 1688 P_____________ AL201969 31.4575 -51.2500 TS 60 0 5 170
1969264N16313 1969 85 NA NA INGA 1969-10-10 06:00:00 TS 31.2000 -51.2000 60 hurdat_atl main 1722 1722 O_____________ hurdat_atl AL201969 31.2000 -51.2000 TS 60 0 6 171
1969264N16313 1969 85 NA NA INGA 1969-10-10 09:00:00 TS 30.9075 -51.1424 main 1757 1757 P_____________ AL201969 30.9075 -51.1424 TS 57 0 6 172
1969264N16313 1969 85 NA NA INGA 1969-10-10 12:00:00 TS 30.6000 -51.1000 55 994 hurdat_atl main 1790 1790 O_____________ hurdat_atl AL201969 30.6000 -51.1000 TS 55 994 0 6 174
1969264N16313 1969 85 NA NA INGA 1969-10-10 15:00:00 TS 30.3000 -51.0850 main 1823 1823 P_____________ AL201969 30.3000 -51.0850 TS 55 993 0 6 179
1969264N16313 1969 85 NA NA INGA 1969-10-10 18:00:00 TS 30.0000 -51.1000 55 992 hurdat_atl main 1857 1857 O_____________ hurdat_atl AL201969 30.0000 -51.1000 TS 55 992 0 6 0
1969264N16313 1969 85 NA NA INGA 1969-10-10 21:00:00 TS 29.6999 -51.1047 main 1890 1890 P_____________ AL201969 29.6999 -51.1047 TS 52 0 6 188
1969264N16313 1969 85 NA NA INGA 1969-10-11 00:00:00 TS 29.4000 -51.2000 50 hurdat_atl main 1907 1872 O_____________ hurdat_atl AL201969 29.4000 -51.2000 TS 50 0 7 207
1969264N16313 1969 85 NA NA INGA 1969-10-11 03:00:00 TS 29.1001 -51.4551 main 1864 1820 P_____________ AL201969 29.1001 -51.4551 TS 47 0 8 221
1969264N16313 1969 85 NA NA INGA 1969-10-11 06:00:00 TS 28.8000 -51.8000 45 hurdat_atl main 1820 1777 O_____________ hurdat_atl AL201969 28.8000 -51.8000 TS 45 0 9 225
1969264N16313 1969 85 NA NA INGA 1969-10-11 09:00:00 TS 28.4925 -52.1500 main 1777 1726 P_____________ AL201969 28.4925 -52.1500 TS 45 0 9 226
1969264N16313 1969 85 NA NA INGA 1969-10-11 12:00:00 TS 28.2000 -52.5000 45 hurdat_atl main 1726 1689 O_____________ hurdat_atl AL201969 28.2000 -52.5000 TS 45 0 8 226
1969264N16313 1969 85 NA NA INGA 1969-10-11 15:00:00 TS 27.9423 -52.7921 main 1682 1645 P_____________ AL201969 27.9423 -52.7921 TS 42 0 7 227
1969264N16313 1969 85 NA NA INGA 1969-10-11 18:00:00 TS 27.7000 -53.1000 40 998 hurdat_atl main 1645 1600 O_____________ hurdat_atl AL201969 27.7000 -53.1000 TS 40 998 0 8 231
1969264N16313 1969 85 NA NA INGA 1969-10-11 21:00:00 TS 27.4425 -53.4850 main 1594 1549 P_____________ AL201969 27.4425 -53.4850 TS 40 0 9 235
1969264N16313 1969 85 NA NA INGA 1969-10-12 00:00:00 TS 27.2000 -53.9000 40 hurdat_atl main 1549 1504 O_____________ hurdat_atl AL201969 27.2000 -53.9000 TS 40 0 9 238
1969264N16313 1969 85 NA NA INGA 1969-10-12 03:00:00 TS 26.9924 -54.2998 main 1504 1459 P_____________ AL201969 26.9924 -54.2998 TS 40 0 8 241
1969264N16313 1969 85 NA NA INGA 1969-10-12 06:00:00 TS 26.8000 -54.7000 40 hurdat_atl main 1459 1414 O_____________ hurdat_atl AL201969 26.8000 -54.7000 TS 40 0 8 240
1969264N16313 1969 85 NA NA INGA 1969-10-12 09:00:00 TS 26.5849 -55.1000 main 1414 1368 P_____________ AL201969 26.5849 -55.1000 TS 37 0 8 241
1969264N16313 1969 85 NA NA INGA 1969-10-12 12:00:00 TS 26.4000 -55.5000 35 hurdat_atl main 1368 1331 O_____________ hurdat_atl AL201969 26.4000 -55.5000 TS 35 0 8 247
1969264N16313 1969 85 NA NA INGA 1969-10-12 15:00:00 TS 26.2849 -55.8998 main 1331 1293 P_____________ AL201969 26.2849 -55.8998 TS 35 0 7 254
1969264N16313 1969 85 NA NA INGA 1969-10-12 18:00:00 TS 26.2000 -56.3000 35 1001 hurdat_atl main 1293 1255 O_____________ hurdat_atl AL201969 26.2000 -56.3000 TS 35 1001 0 7 256
1969264N16313 1969 85 NA NA INGA 1969-10-12 21:00:00 TS 26.0999 -56.6999 main 1255 1218 P_____________ AL201969 26.0999 -56.6999 TS 35 0 7 254
1969264N16313 1969 85 NA NA INGA 1969-10-13 00:00:00 TS 26.0000 -57.1000 35 hurdat_atl main 1218 1181 O_____________ hurdat_atl AL201969 26.0000 -57.1000 TS 35 0 7 254
1969264N16313 1969 85 NA NA INGA 1969-10-13 03:00:00 TS 25.8998 -57.4924 main 1181 1145 P_____________ AL201969 25.8998 -57.4924 TS 35 0 7 254
1969264N16313 1969 85 NA NA INGA 1969-10-13 06:00:00 TS 25.8000 -57.9000 35 hurdat_atl main 1145 1109 O_____________ hurdat_atl AL201969 25.8000 -57.9000 TS 35 0 8 256
1969264N16313 1969 85 NA NA INGA 1969-10-13 09:00:00 TS 25.7001 -58.3650 main 1102 1066 P_____________ AL201969 25.7001 -58.3650 TS 35 0 8 256
1969264N16313 1969 85 NA NA INGA 1969-10-13 12:00:00 TS 25.6000 -58.8000 35 hurdat_atl main 1066 1038 O_____________ hurdat_atl AL201969 25.6000 -58.8000 TS 35 0 7 254
1969264N16313 1969 85 NA NA INGA 1969-10-13 15:00:00 TS 25.4924 -59.1450 main 1038 1010 P_____________ AL201969 25.4924 -59.1450 TS 35 0 6 250
1969264N16313 1969 85 NA NA INGA 1969-10-13 18:00:00 TS 25.4000 -59.4000 35 1003 hurdat_atl main 1010 988 O_____________ hurdat_atl AL201969 25.4000 -59.4000 TS 35 1003 0 4 249
1969264N16313 1969 85 NA NA INGA 1969-10-13 21:00:00 TS 25.3424 -59.5799 main 988 982 P_____________ AL201969 25.3424 -59.5799 TS 32 -1 3 250
1969264N16313 1969 85 NA NA INGA 1969-10-14 00:00:00 TS 25.3000 -59.7000 30 hurdat_atl main 982 967 O_____________ hurdat_atl AL201969 25.3000 -59.7000 TD 30 -1 2 245
1969264N16313 1969 85 NA NA INGA 1969-10-14 03:00:00 TS 25.2425 -59.8150 main 967 960 P_____________ AL201969 25.2425 -59.8150 TD 30 -1 2 241
1969264N16313 1969 85 NA NA INGA 1969-10-14 06:00:00 TS 25.2000 -59.9000 30 hurdat_atl main 960 954 O_____________ hurdat_atl AL201969 25.2000 -59.9000 TD 30 -1 1 249
1969264N16313 1969 85 NA NA INGA 1969-10-14 09:00:00 TS 25.1925 -59.9575 main 954 954 P_____________ AL201969 25.1925 -59.9575 TD 27 -1 1 270
1969264N16313 1969 85 NA NA INGA 1969-10-14 12:00:00 TS 25.2000 -60.0000 25 hurdat_atl main 954 954 O_____________ hurdat_atl AL201969 25.2000 -60.0000 TD 25 -1 1 275
1969264N16313 1969 85 NA NA INGA 1969-10-14 15:00:00 TS 25.2000 -60.0500 main 954 948 P_____________ AL201969 25.2000 -60.0500 TD 25 -1 1 270
1969264N16313 1969 85 NA NA INGA 1969-10-14 18:00:00 TS 25.2000 -60.1000 25 hurdat_atl main 948 948 O_____________ hurdat_atl AL201969 25.2000 -60.1000 TD 25 -1 1 270
1969264N16313 1969 85 NA NA INGA 1969-10-14 21:00:00 TS 25.2000 -60.1500 main 948 942 P_____________ AL201969 25.2000 -60.1500 TD 25 -1 1 270
1969264N16313 1969 85 NA NA INGA 1969-10-15 00:00:00 TS 25.2000 -60.2000 25 hurdat_atl main 942 942 O_____________ hurdat_atl AL201969 25.2000 -60.2000 TD 25 -1 1 270
1969264N16313 1969 85 NA NA INGA 1969-10-15 03:00:00 TS 25.2000 -60.2500 main 942 936 P_____________ AL201969 25.2000 -60.2500 TD 22 -1 1 270
1969264N16313 1969 85 NA NA INGA 1969-10-15 06:00:00 TS 25.2000 -60.3000 20 hurdat_atl main 936 936 O_____________ hurdat_atl AL201969 25.2000 -60.3000 TD 20 -1 1 270
1969264N16313 1969 85 NA NA INGA 1969-10-15 09:00:00 TS 25.2000 -60.3500 main 936 930 P_____________ AL201969 25.2000 -60.3500 TD 20 -1 1 270
1969264N16313 1969 85 NA NA INGA 1969-10-15 12:00:00 TS 25.2000 -60.4000 20 hurdat_atl main 930 O_____________ hurdat_atl AL201969 25.2000 -60.4000 TD 20 -1 1 270

IBTrACS Databaseについて

本データベースは、米国NOAAが公開する1842年以降の世界の熱帯低気圧のベストトラックデータアーカイブInternational Best Track Archive for Climate Stewardship (IBTrACS)を、ウェブで閲覧しやすい形式に変換したものです。

最終更新日:2022-06-27